| time (UTC) | temp F | wind direction | speed MPH | gust MPH | rain 1hr in | rain 24hr in | rain mn in | humidity % | barometer mb |
| 20260503233559 | 77 | 23 | 2.0 | 6.0 | 0.00 | 0.00 | 0.00 | 37 | 1009.0 |
| 20260503232540 | 77 | 0 | 2.0 | 6.0 | 0.00 | 0.00 | 0.00 | 36 | 1009.2 |
| 20260503231520 | 77 | 0 | 2.0 | 8.0 | 0.00 | 0.00 | 0.00 | 37 | 1009.3 |
| 20260503230518 | 78 | 0 | 3.0 | 9.0 | 0.00 | 0.00 | 0.00 | 37 | 1009.5 |
| 20260503225519 | 78 | 0 | 2.0 | 8.0 | 0.00 | 0.00 | 0.00 | 37 | 1009.6 |
| 20260503224518 | 77 | 0 | 4.0 | 8.0 | 0.00 | 0.00 | 0.00 | 36 | 1009.7 |
| 20260503223558 | 77 | 0 | 4.0 | 10.0 | 0.00 | 0.00 | 0.00 | 37 | 1009.9 |
| 20260503222518 | 78 | 23 | 4.0 | 9.0 | 0.00 | 0.00 | 0.00 | 37 | 1009.9 |
| 20260503221519 | 78 | 113 | 1.0 | 5.0 | 0.00 | 0.00 | 0.00 | 38 | 1010.1 |
| 20260503220518 | 78 | 0 | 3.0 | 10.0 | 0.00 | 0.00 | 0.00 | 37 | 1010.1 |
| 20260503215518 | 78 | 23 | 3.0 | 8.0 | 0.00 | 0.00 | 0.00 | 37 | 1010.3 |
| 20260503214521 | 78 | 23 | 3.0 | 7.0 | 0.00 | 0.00 | 0.00 | 37 | 1010.3 |
| 20260503213518 | 78 | 45 | 3.0 | 9.0 | 0.00 | 0.00 | 0.00 | 37 | 1010.5 |
| 20260503212518 | 78 | 113 | 1.0 | 4.0 | 0.00 | 0.00 | 0.00 | 38 | 1010.6 |
| 20260503211538 | 78 | 23 | 2.0 | 4.0 | 0.00 | 0.00 | 0.00 | 38 | 1010.6 |
| 20260503210518 | 77 | 0 | 3.0 | 9.0 | 0.00 | 0.00 | 0.00 | 39 | 1010.7 |
| 20260503205518 | 78 | 113 | 2.0 | 8.0 | 0.00 | 0.00 | 0.00 | 38 | 1010.8 |
| 20260503204518 | 76 | 0 | 3.0 | 11.0 | 0.00 | 0.00 | 0.00 | 40 | 1010.9 |
| 20260503203518 | 77 | 0 | 4.0 | 9.0 | 0.00 | 0.00 | 0.00 | 40 | 1011.1 |
| 20260503202518 | 77 | 0 | 4.0 | 13.0 | 0.00 | 0.00 | 0.00 | 40 | 1011.2 |
| 20260503201517 | 78 | 0 | 1.0 | 4.0 | 0.00 | 0.00 | 0.00 | 44 | 1011.3 |
| 20260503200518 | 75 | 0 | 3.0 | 9.0 | 0.00 | 0.00 | 0.00 | 45 | 1011.4 |
| 20260503195517 | 75 | 45 | 2.0 | 5.0 | 0.00 | 0.00 | 0.00 | 44 | 1011.5 |
| 20260503194518 | 75 | 0 | 3.0 | 8.0 | 0.00 | 0.00 | 0.00 | 44 | 1011.6 |
| 20260503193518 | 76 | 68 | 2.0 | 5.0 | 0.00 | 0.00 | 0.00 | 42 | 1011.8 |
| 20260503192518 | 76 | 113 | 2.0 | 10.0 | 0.00 | 0.00 | 0.00 | 43 | 1011.9 |
| 20260503191519 | 75 | 0 | 2.0 | 8.0 | 0.00 | 0.00 | 0.00 | 45 | 1011.9 |
| 20260503190517 | 75 | 23 | 3.0 | 8.0 | 0.00 | 0.00 | 0.00 | 45 | 1012.0 |
| 20260503185517 | 75 | 0 | 4.0 | 10.0 | 0.00 | 0.00 | 0.00 | 45 | 1012.1 |
| 20260503184519 | 74 | 0 | 2.0 | 5.0 | 0.00 | 0.00 | 0.00 | 47 | 1012.2 |
| 20260503183518 | 74 | 23 | 2.0 | 5.0 | 0.00 | 0.00 | 0.00 | 46 | 1012.3 |
| 20260503182518 | 74 | 0 | 2.0 | 7.0 | 0.00 | 0.00 | 0.00 | 46 | 1012.3 |
| 20260503181517 | 74 | 135 | 3.0 | 7.0 | 0.00 | 0.00 | 0.00 | 47 | 1012.4 |
| 20260503180517 | 74 | 113 | 1.0 | 8.0 | 0.00 | 0.00 | 0.00 | 48 | 1012.4 |
| 20260503175519 | 73 | 23 | 3.0 | 8.0 | 0.00 | 0.00 | 0.00 | 49 | 1012.5 |
| 20260503174544 | 72 | 23 | 2.0 | 7.0 | 0.00 | 0.00 | 0.00 | 49 | 1012.6 |
| 20260503173519 | 72 | 0 | 4.0 | 11.0 | 0.00 | 0.00 | 0.00 | 49 | 1012.7 |
| 20260503172603 | 71 | 0 | 2.0 | 7.0 | 0.00 | 0.00 | 0.00 | 50 | 1012.6 |
| 20260503171517 | 70 | 0 | 3.0 | 10.0 | 0.00 | 0.00 | 0.00 | 51 | 1012.6 |
| 20260503170522 | 70 | 0 | 3.0 | 11.0 | 0.00 | 0.00 | 0.00 | 52 | 1012.7 |
| 20260503150522 | 64 | 0 | 2.0 | 9.0 | 0.00 | 0.00 | 0.00 | 58 | 1013.0 |
| 20260503130519 | 60 | 0.0 | 2.0 | 0.00 | 0.00 | 0.00 | 62 | 1012.4 | |
| 20260503110518 | 58 | 0.0 | 2.0 | 0.00 | 0.00 | 0.00 | 65 | 1012.8 | |
| 20260503081518 | 62 | 0.0 | 2.0 | 0.00 | 0.00 | 0.00 | 55 | 1013.0 | |
| 20260503080516 | 61 | 0.0 | 0.0 | 0.00 | 0.00 | 0.00 | 56 | 1013.1 | |
| 20260503072536 | 62 | 0.0 | 0.0 | 0.00 | 0.00 | 0.00 | 56 | 1013.0 | |
| 20260503071537 | 63 | 0.0 | 0.0 | 0.00 | 0.00 | 0.00 | 54 | 1013.0 | |
| 20260503070516 | 63 | 0.0 | 2.0 | 0.00 | 0.00 | 0.00 | 53 | 1012.9 | |
| 20260503054542 | 65 | 0.0 | 1.0 | 0.00 | 0.00 | 0.00 | 49 | 1012.6 | |
| 20260503053516 | 64 | 0.0 | 2.0 | 0.00 | 0.00 | 0.00 | 50 | 1012.7 | |
| 20260503052517 | 65 | 0.0 | 3.0 | 0.00 | 0.00 | 0.00 | 48 | 1012.7 | |
| 20260503051516 | 66 | 0.0 | 2.0 | 0.00 | 0.00 | 0.00 | 46 | 1012.6 | |
| 20260503050516 | 67 | 0.0 | 2.0 | 0.00 | 0.00 | 0.00 | 45 | 1012.5 | |
| 20260503045517 | 68 | 0 | 1.0 | 4.0 | 0.00 | 0.00 | 0.00 | 44 | 1012.5 |
| 20260503044518 | 67 | 0.0 | 2.0 | 0.00 | 0.00 | 0.00 | 46 | 1012.4 | |
| 20260503043516 | 67 | 0.0 | 2.0 | 0.00 | 0.00 | 0.00 | 47 | 1012.3 | |
| 20260503042537 | 67 | 0.0 | 2.0 | 0.00 | 0.00 | 0.00 | 45 | 1012.2 | |
| 20260503041516 | 68 | 0.0 | 2.0 | 0.00 | 0.00 | 0.00 | 45 | 1012.1 | |
| 20260503040518 | 68 | 113 | 1.0 | 5.0 | 0.00 | 0.00 | 0.00 | 44 | 1011.9 |
| 20260503035520 | 69 | 0.0 | 2.0 | 0.00 | 0.00 | 0.00 | 44 | 1011.8 | |
| 20260503034520 | 69 | 23 | 1.0 | 5.0 | 0.00 | 0.00 | 0.00 | 44 | 1011.7 |
| 20260503033519 | 69 | 0.0 | 2.0 | 0.00 | 0.00 | 0.00 | 44 | 1011.6 | |
| 20260503032540 | 69 | 45 | 1.0 | 5.0 | 0.00 | 0.00 | 0.00 | 44 | 1011.5 |
| 20260503031518 | 69 | 68 | 1.0 | 3.0 | 0.00 | 0.00 | 0.00 | 44 | 1011.5 |
| 20260503030540 | 70 | 0 | 1.0 | 4.0 | 0.00 | 0.00 | 0.00 | 44 | 1011.4 |
| 20260503025520 | 70 | 0 | 1.0 | 4.0 | 0.00 | 0.00 | 0.00 | 44 | 1011.4 |
| 20260503024520 | 71 | 0 | 1.0 | 5.0 | 0.00 | 0.00 | 0.00 | 42 | 1011.3 |
| 20260503023519 | 71 | 0 | 2.0 | 5.0 | 0.00 | 0.00 | 0.00 | 41 | 1011.3 |
| 20260503022520 | 71 | 0 | 2.0 | 6.0 | 0.00 | 0.00 | 0.00 | 41 | 1011.3 |
| 20260503021518 | 72 | 0 | 1.0 | 8.0 | 0.00 | 0.00 | 0.00 | 41 | 1011.3 |
| 20260503020518 | 72 | 0 | 2.0 | 8.0 | 0.00 | 0.00 | 0.00 | 41 | 1011.4 |
| 20260503015518 | 72 | 0 | 1.0 | 5.0 | 0.00 | 0.00 | 0.00 | 42 | 1011.4 |
| 20260503014520 | 72 | 0 | 3.0 | 12.0 | 0.00 | 0.00 | 0.00 | 42 | 1011.5 |
| 20260503013518 | 73 | 23 | 3.0 | 10.0 | 0.00 | 0.00 | 0.00 | 43 | 1011.6 |
| 20260503012518 | 73 | 0 | 3.0 | 8.0 | 0.00 | 0.00 | 0.00 | 43 | 1011.5 |
| 20260503011540 | 73 | 0 | 3.0 | 8.0 | 0.00 | 0.00 | 0.00 | 42 | 1011.5 |
| 20260503010518 | 74 | 0 | 5.0 | 13.0 | 0.00 | 0.00 | 0.00 | 42 | 1011.5 |
| 20260503005519 | 74 | 0 | 3.0 | 8.0 | 0.00 | 0.00 | 0.00 | 42 | 1011.6 |
| 20260503004540 | 74 | 0 | 2.0 | 8.0 | 0.00 | 0.00 | 0.00 | 42 | 1011.6 |
| 20260503003518 | 74 | 0 | 2.0 | 7.0 | 0.00 | 0.00 | 0.00 | 42 | 1011.7 |
| 20260503002538 | 74 | 113 | 2.0 | 6.0 | 0.00 | 0.00 | 0.00 | 43 | 1011.7 |
| 20260503001518 | 74 | 23 | 3.0 | 8.0 | 0.00 | 0.00 | 0.00 | 44 | 1011.7 |
| 20260503000518 | 74 | 0 | 4.0 | 11.0 | 0.00 | 0.00 | 0.00 | 43 | 1011.8 |
| 20260502235518 | 74 | 0 | 5.0 | 10.0 | 0.00 | 0.00 | 0.00 | 43 | 1011.9 |
| 20260502234519 | 74 | 0 | 4.0 | 8.0 | 0.00 | 0.00 | 0.00 | 44 | 1012.0 |